Theta_e
316 318 319 319 320 325 325 324 322 318 316 314 313 312 313 313 311 311 312 311 310 308 307 307 307 307 306 306 304 305 304 305
316 316 317 318 317 317 316 316 312 312 311 309 309 308 310 310 310 312 310 309 310 307 306 306 306 305 303 304 303 304 303 304
313 313 313 313 311 312 311 310 311 310 309 309 310 310 309 310 310 310 310 309 307 308 304 304 304 304 302 301 301 301 301 302
310 311 309 308 308 308 309 309 309 310 309 309 308 307 307 307 308 308 309 307 305 304 303 302 302 303 301 300 301 300 298 299
310 309 308 308 308 308 308 309 309 310 309 307 305 305 305 307 305 305 304 303 303 303 302 302 301 301 300 300 303 299 298 296
307 307 308 309 308 307 307 308 309 309 308 307 306 304 304 305 304 301 301 301 301 302 302 301 300 301 300 299 298 297 297 296
306 308 309 308 308 307 308 308 308 309 310 308 305 303 303 301 300 298 298 299 299 299 300 299 300 299 298 298 298 297 298 297
304 305 306 307 307 307 307 308 308 308 307 306 304 303 301 299 297 296 296 296 296 297 297 297 297 297 296 296 296 297 297 295
304 305 304 305 308 306 306 307 307 306 305 304 303 302 301 299 297 297 296 296 295 296 296 296 296 296 295 295 296 294 294 293
304 305 305 306 306 306 305 305 305 304 303 302 301 301 299 297 297 296 295 295 296 295 295 295 295 295 295 294 292 292 293 292
303 304 303 304 304 304 303 303 302 302 302 301 301 300 299 297 296 294 294 294 294 294 294 294 293 293 294 293 291 291 291 291
302 303 303 302 303 303 302 301 301 300 299 299 297 297 297 296 295 294 293 293 293 294 293 292 291 291 291 290 290 291 291 289
301 301 301 300 300 301 300 299 299 299 299 298 297 296 295 293 293 293 292 292 293 292 291 289 289 288 287 286 286 286 285 284
300 300 299 299 298 298 297 298 298 298 298 297 296 295 295 292 292 292 292 292 290 289 288 288 288 288 287 286 285 285 284 284
298 298 298 297 297 296 297 297 297 298 297 296 296 296 296 294 292 291 292 291 288 287 288 288 288 287 286 285 284 283 282 283
297 296 295 295 295 296 296 295 296 298 298 296 296 296 295 293 295 294 293 291 288 288 287 287 287 286 285 283 282 281 280 280
296 297 296 296 295 293 293 293 295 297 296 296 296 295 295 295 294 294 292 288 287 287 286 286 284 286 285 285 283 279 280 280
295 295 296 294 292 293 291 291 292 291 291 295 295 295 294 293 295 294 289 285 285 286 284 284 284 283 286 286 284 281 279 278
295 295 292 292 291 290 290 290 290 290 291 293 293 293 292 293 293 291 286 286 285 283 283 283 282 284 286 287 285 280 278 279
Wind_Speed
16 14 18 17 15 16 12 7 5 5 4 4 5 5 5 4 4 4 7 5 6 4 3 4 4 4 5 5 5 5 3 5
18 16 14 16 12 13 9 8 4 5 4 4 4 3 2 4 4 6 6 4 5 5 3 5 5 3 3 4 3 5 5 4
16 15 15 13 11 9 9 10 9 7 3 3 3 2 3 3 3 6 7 5 7 7 6 5 6 4 6 6 5 4 3 3
14 14 10 9 9 9 9 8 8 7 6 4 5 4 4 4 4 5 6 7 7 7 7 5 6 5 4 5 5 3 3 3
12 11 9 9 7 8 8 7 6 6 7 6 5 2 3 2 1 3 6 8 7 6 6 6 5 4 5 4 5 3 3 3
10 9 8 6 6 5 4 4 3 4 5 5 4 2 0 3 4 6 6 6 7 7 9 7 6 4 4 5 5 5 3 2
8 8 8 7 5 4 3 4 3 0 3 4 3 6 6 4 5 4 3 3 4 6 7 7 6 6 6 5 4 4 3 2
7 8 7 6 6 4 1 3 4 7 6 7 7 7 7 7 4 3 4 3 3 6 6 6 4 5 6 6 5 5 4 3
7 7 5 4 4 5 5 3 8 7 7 7 6 6 4 4 3 1 1 4 3 4 5 5 4 4 4 4 3 4 5 5
8 9 8 7 8 7 8 8 6 7 6 5 5 4 4 3 3 4 4 3 4 5 5 3 4 3 4 4 3 5 5 5
10 10 8 7 7 6 7 7 5 4 4 3 3 2 3 0 6 5 4 1 2 5 6 5 6 6 5 4 4 5 5 5
7 6 6 7 7 7 6 6 5 3 3 2 2 4 4 6 6 5 3 1 3 4 5 5 5 6 6 5 6 7 6 7
7 7 7 6 8 6 6 6 6 1 2 2 4 2 2 2 3 4 3 2 3 4 3 4 4 5 5 6 6 4 5 6
8 9 8 7 6 6 7 7 6 5 3 4 5 2 3 3 5 1 2 1 3 2 2 3 3 4 5 5 5 5 5 5
7 7 6 6 5 6 6 6 6 5 2 2 4 4 6 4 1 3 2 1 4 2 1 3 3 4 5 4 5 5 6 7
6 7 6 6 5 6 6 7 7 4 6 6 7 4 3 3 3 3 7 6 3 1 2 5 3 3 3 4 3 3 5 6
7 7 7 6 5 5 6 7 6 5 7 12 3 3 4 4 1 6 9 3 2 2 4 5 4 4 6 2 1 3 5 6
6 7 7 6 5 6 6 6 6 7 10 10 5 4 5 6 5 11 3 1 2 4 4 4 4 3 3 4 6 3 5 5
7 7 6 6 4 6 5 5 6 6 6 7 5 5 4 5 2 9 1 2 4 3 3 4 5 4 10 11 8 4 5 6
Wind_Direction
50 54 66 61 76 108 114 121 213 213 167 83 48 55 57 74 78 77 80 69 59 47 343 332 336 360 354 351 343 325 307 300
65 59 65 80 65 85 76 77 53 57 61 69 52 68 83 80 59 89 85 70 55 35 353 342 354 26 328 326 314 331 316 305
65 56 47 58 74 69 75 64 50 37 46 51 76 48 68 121 48 53 39 31 19 29 19 358 357 359 354 343 329 309 284 358
79 69 57 53 58 64 71 67 62 55 52 39 20 21 18 20 17 13 6 33 33 30 24 20 8 18 343 314 309 326 299 312
89 82 64 56 49 56 76 100 91 72 69 63 62 59 28 356 328 20 32 26 21 25 21 14 4 338 333 322 349 343 34 15
96 100 104 99 88 81 63 68 116 137 123 114 96 114 236 22 41 44 25 9 13 11 8 358 335 340 18 50 29 31 36 49
128 129 133 147 152 139 157 57 66 60 87 99 86 79 80 67 51 44 13 7 12 360 351 347 348 12 10 8 25 49 49 42
126 139 155 166 175 193 158 92 43 51 86 79 79 92 84 93 81 52 15 1 350 17 16 28 35 21 16 8 10 3 6 343
134 147 134 99 66 58 70 64 59 68 67 71 71 69 91 88 81 101 349 39 21 6 358 18 32 22 358 345 333 328 320 310
89 66 74 69 63 60 62 67 69 71 85 91 76 91 107 141 196 57 90 53 7 355 352 354 344 327 308 305 309 309 313 295
69 68 60 51 49 62 62 62 51 16 80 64 69 76 193 201 79 93 96 69 11 357 327 319 312 307 312 317 286 281 282 280
85 81 62 53 41 48 38 22 353 20 60 43 345 304 81 119 141 157 150 108 18 316 303 326 333 331 316 301 294 292 311 333
63 53 50 34 45 29 350 324 327 254 254 288 304 346 170 165 170 170 121 37 275 287 312 329 343 331 329 337 341 21 13 350
42 26 19 22 9 347 323 317 307 284 277 293 335 41 355 290 306 161 168 239 245 294 351 349 346 331 322 8 20 4 356 341
38 10 350 342 334 326 322 313 308 303 17 317 292 281 248 234 144 335 304 281 258 290 23 291 320 319 64 43 28 3 348 339
17 349 343 327 328 333 338 324 323 306 319 300 271 288 217 118 296 45 287 259 265 150 309 289 314 54 66 50 30 347 319 314
1 324 317 320 339 332 325 348 350 324 311 318 318 68 354 335 6 285 269 277 269 23 296 287 59 94 118 73 333 297 299 299
327 314 307 316 314 349 16 349 332 343 357 21 12 319 292 273 276 260 227 272 318 319 322 81 70 100 148 314 271 268 285 289
302 297 309 327 11 22 347 339 350 358 35 355 344 331 301 332 307 294 317 358 297 26 63 54 44 349 331 325 358 318 307 291